Weather History for Auburn, AL

Change the Weather History Date:

Wednesday, November 23, 2011

  Actual Average Record
Temperature  
Mean Temperature 55 °F -  
Max Temperature 64 °F - 79 °F (1963)
Min Temperature 46 °F - 23 °F (1976)
Degree Days  
Heating Degree Days 10    
Month to date heating degree days 167  
Since 1 July heating degree days 257  
Growing Degree Days 5 (Base 50)    
Moisture  
Dew Point 51 °F    
Average Humidity 78    
Maximum Humidity 100    
Minimum Humidity 55    
Precipitation  
Precipitation 0.01 in - 1.95 in (2001)
Month to date precipitation 2.12  
Year to date precipitation 35.21  
Sea Level Pressure  
Sea Level Pressure 30.12 in    
Wind  
Wind Speed 10 mph (NW)    
Max Wind Speed 18 mph    
Max Gust Speed 25 mph    
Visibility 10 miles    
Events      
T = Trace of Precipitation, MM = Missing Value Source: NWS Daily Summary

Daily Weather History Graph

Daily Weather History Graph

Search for Another Location

Airport:

Trip Planner

Search our weather history database for the weather conditions in past years. The results will help you decide how hot, cold, wet, or windy it might be!

Date:

Astronomy

Nov. 23, 2011 Rise Set
Actual Time 6:18 AM CST 4:37 PM CST
Civil Twilight 5:52 AM CST 5:03 PM CST
Nautical Twilight 5:22 AM CST 5:33 PM CST
Astronomical Twilight 4:52 AM CST 6:03 PM CST
Moon 4:24 AM CST (11/23) 3:17 PM CST (11/23)
Length of Visible Light 11h 11m
Length of Day
10h 18m
Waning Crescent, 3% of the Moon is Illuminated
Nov 23
Waning Crescent
Nov 25
New
Dec 2
First Quarter
Dec 10
Full
Dec 17
Last Quarter

Hourly Weather History & Observations

Time (CST) Temp. Windchill Dew Point Humidity Pressure Visibility Wind Dir Wind Speed Gust Speed Precip Events Conditions
12:15 AM 64.4 °F - 62.6 °F 94% 30.03 in 10.0 mi WSW 4.6 mph - N/A   Overcast
12:35 AM 64.4 °F - 62.6 °F 94% 30.02 in 10.0 mi WSW 5.8 mph - N/A   Overcast
12:55 AM 62.6 °F - 62.6 °F 100% 30.03 in 10.0 mi WSW 8.1 mph - N/A   Overcast
1:15 AM 62.6 °F - 62.6 °F 100% 30.03 in 10.0 mi West 9.2 mph - N/A   Overcast
1:35 AM 62.6 °F - 62.6 °F 100% 30.03 in 10.0 mi West 8.1 mph - N/A   Overcast
1:55 AM 62.6 °F - 62.6 °F 100% 30.02 in 10.0 mi West 5.8 mph - N/A   Overcast
2:55 AM 62.6 °F - 60.8 °F 94% 30.02 in 10.0 mi West 5.8 mph - N/A   Mostly Cloudy
3:15 AM 62.6 °F - 60.8 °F 94% 30.02 in 10.0 mi West 5.8 mph - N/A   Mostly Cloudy
3:35 AM 62.6 °F - 60.8 °F 94% 30.02 in 10.0 mi West 8.1 mph - N/A   Overcast
3:55 AM 62.6 °F - 60.8 °F 94% 30.02 in 10.0 mi West 5.8 mph - N/A   Overcast
4:15 AM 60.8 °F - 59.0 °F 94% 30.03 in 10.0 mi West 9.2 mph - N/A   Mostly Cloudy
4:35 AM 60.8 °F - 57.2 °F 88% 30.03 in 10.0 mi WNW 5.8 mph - N/A   Mostly Cloudy
4:55 AM 60.8 °F - 57.2 °F 88% 30.04 in 10.0 mi WNW 10.4 mph - N/A   Mostly Cloudy
5:16 AM 60.8 °F - 57.2 °F 88% 30.04 in 10.0 mi WNW 8.1 mph - N/A   Mostly Cloudy
5:35 AM 60.8 °F - 57.2 °F 88% 30.05 in 10.0 mi WNW 8.1 mph - N/A   Scattered Clouds
6:15 AM 59.0 °F - 57.2 °F 94% 30.06 in 10.0 mi WNW 5.8 mph - N/A   Mostly Cloudy
6:35 AM 59.0 °F - 57.2 °F 94% 30.07 in 10.0 mi NW 10.4 mph - N/A   Mostly Cloudy
6:55 AM 59.0 °F - 55.4 °F 88% 30.08 in 10.0 mi NNW 11.5 mph 18.4 mph N/A   Mostly Cloudy
7:15 AM 57.2 °F - 53.6 °F 88% 30.09 in 10.0 mi NW 10.4 mph 16.1 mph N/A   Overcast
7:35 AM 57.2 °F - 53.6 °F 88% 30.10 in 10.0 mi NW 15.0 mph 21.9 mph N/A   Overcast
7:55 AM 57.2 °F - 53.6 °F 88% 30.10 in 10.0 mi NNW 12.7 mph 18.4 mph N/A   Overcast
8:15 AM 57.2 °F - 51.8 °F 82% 30.12 in 10.0 mi NNW 15.0 mph 21.9 mph N/A   Overcast
8:35 AM 57.2 °F - 51.8 °F 82% 30.13 in 10.0 mi NNW 17.3 mph 25.3 mph N/A   Overcast
8:55 AM - - - N/A% 30.14 in 10.0 mi NNW 18.4 mph 25.3 mph N/A   Overcast
9:15 AM 57.2 °F - 48.2 °F 72% 30.15 in 10.0 mi NNW 12.7 mph 20.7 mph N/A   Overcast
9:35 AM 57.2 °F - 48.2 °F 72% 30.15 in 10.0 mi NNW 12.7 mph 19.6 mph N/A   Overcast
9:55 AM 57.2 °F - 48.2 °F 72% 30.16 in 10.0 mi NNW 13.8 mph 21.9 mph N/A   Overcast
10:15 AM 59.0 °F - 48.2 °F 67% 30.15 in 10.0 mi NNW 12.7 mph 19.6 mph 0.01 in   Overcast
10:35 AM 60.8 °F - 50.0 °F 68% 30.15 in 10.0 mi NNW 16.1 mph 19.6 mph 0.01 in   Mostly Cloudy
10:55 AM 59.0 °F - 48.2 °F 67% 30.14 in 10.0 mi NW 12.7 mph 18.4 mph 0.01 in   Mostly Cloudy
11:15 AM 60.8 °F - 48.2 °F 63% 30.14 in 10.0 mi NNW 13.8 mph 24.2 mph N/A   Mostly Cloudy
11:35 AM 60.8 °F - 48.2 °F 63% 30.13 in 10.0 mi NNW 12.7 mph 19.6 mph N/A   Mostly Cloudy
11:55 AM 60.8 °F - 48.2 °F 63% 30.13 in 10.0 mi NNW 13.8 mph 18.4 mph N/A   Overcast
12:15 PM 60.8 °F - 48.2 °F 63% 30.13 in 10.0 mi North 11.5 mph 20.7 mph N/A   Overcast
12:35 PM 60.8 °F - 48.2 °F 63% 30.13 in 10.0 mi NNW 13.8 mph 20.7 mph N/A   Overcast
12:55 PM 60.8 °F - 48.2 °F 63% 30.12 in 10.0 mi NNW 11.5 mph 19.6 mph N/A   Overcast
1:15 PM 60.8 °F - 46.4 °F 59% 30.13 in 10.0 mi NNW 17.3 mph 23.0 mph N/A   Scattered Clouds
1:35 PM 60.8 °F - 46.4 °F 59% 30.12 in 10.0 mi NW 10.4 mph 21.9 mph N/A   Scattered Clouds
1:55 PM 62.6 °F - 46.4 °F 55% 30.12 in 10.0 mi NNW 8.1 mph - N/A   Scattered Clouds
2:35 PM 60.8 °F - 46.4 °F 59% 30.13 in 10.0 mi NW 10.4 mph - N/A   Clear
2:55 PM 60.8 °F - 46.4 °F 59% 30.13 in 10.0 mi NNW 13.8 mph 17.3 mph N/A   Clear
3:15 PM 60.8 °F - 46.4 °F 59% 30.14 in 10.0 mi NNW 11.5 mph 18.4 mph N/A   Clear
3:35 PM 60.8 °F - 46.4 °F 59% 30.14 in 10.0 mi NNW 10.4 mph 18.4 mph N/A   Clear
3:55 PM 60.8 °F - 44.6 °F 55% 30.15 in 10.0 mi North 13.8 mph 18.4 mph N/A   Clear
4:15 PM 59.0 °F - 44.6 °F 59% 30.15 in 10.0 mi NNW 10.4 mph 18.4 mph N/A   Clear
4:35 PM 57.2 °F - 44.6 °F 63% 30.16 in 10.0 mi NNW 10.4 mph - N/A   Clear
4:55 PM 55.4 °F - 44.6 °F 67% 30.16 in 10.0 mi NNW 6.9 mph - N/A   Clear
5:15 PM 55.4 °F - 44.6 °F 67% 30.17 in 10.0 mi NNW 9.2 mph - N/A   Clear
5:55 PM 53.6 °F - 44.6 °F 72% 30.18 in 10.0 mi NNW 8.1 mph - N/A   Clear
6:55 PM 51.8 °F - 44.6 °F 76% 30.20 in 10.0 mi North 8.1 mph - N/A   Clear
7:35 PM 51.8 °F - 44.6 °F 76% 30.21 in 10.0 mi NNW 9.2 mph - N/A   Clear
7:55 PM 51.8 °F - 44.6 °F 76% 30.22 in 10.0 mi NNW 8.1 mph - N/A   Clear
8:35 PM 50.0 °F - 44.6 °F 82% 30.23 in 10.0 mi NNW 9.2 mph - N/A   Clear
8:55 PM 48.2 °F - 44.6 °F 87% 30.23 in 10.0 mi NNW 12.7 mph - N/A   Clear
9:15 PM 48.2 °F - 44.6 °F 87% 30.24 in 10.0 mi North 11.5 mph - N/A   Clear
9:35 PM 48.2 °F - 44.6 °F 87% 30.24 in 10.0 mi North 11.5 mph - N/A   Clear
10:15 PM 48.2 °F - 42.8 °F 82% 30.23 in 10.0 mi NNW 11.5 mph 17.3 mph N/A   Clear
10:35 PM 48.2 °F - 42.8 °F 82% 30.23 in 10.0 mi North 10.4 mph - N/A   Clear
10:55 PM 48.2 °F - 42.8 °F 82% 30.23 in 10.0 mi North 10.4 mph - N/A   Clear
11:15 PM 46.4 °F 40.7 °F 42.8 °F 87% 30.23 in 10.0 mi North 12.7 mph - N/A   Clear
11:35 PM 46.4 °F 41.9 °F 42.8 °F 87% 30.23 in 10.0 mi North 9.2 mph - N/A   Clear
11:55 PM 46.4 °F 42.4 °F 42.8 °F 87% 30.23 in 10.0 mi North 8.1 mph - N/A   Clear